Jackson, MS

4:22 AM CST on December 06, 2016 (GMT -0600)
Hawkins

Weather History for KHKS - March, 2014

Change the Weather History Date:

Sunday, March 9, 2014

  Actual Average (KJAN) Record (KJAN)
Temperature  
Mean Temperature 62 °F 55 °F  
Max Temperature 71 °F 67 °F 90 °F (1911)
Min Temperature 51 °F 44 °F 16 °F (1996)
Degree Days  
Heating Degree Days 4 10  
Month to date heating degree days 102  
Since 1 July heating degree days 2094  
Cooling Degree Days 0 1  
Month to date cooling degree days 6  
Year to date cooling degree days 16  
Growing Degree Days 12 (Base 50)    
Moisture  
Dew Point 47 °F    
Average Humidity 62    
Maximum Humidity 86    
Minimum Humidity 41    
Precipitation  
Precipitation 0.00 in 0.16 in 2.35 in (1913)
Month to date precipitation 1.48  
Year to date precipitation 11.21  
Sea Level Pressure  
Sea Level Pressure 30.18 in    
Wind  
Wind Speed 2 mph (North)    
Max Wind Speed 9 mph    
Max Gust Speed -    
Visibility 9 miles    
Events      
T = Trace of Precipitation, MM = Missing Value Source: NWS Daily Summary

Daily Weather History Graph

Daily Weather History Graph

Search for Another Location

Airport or City:

Trip Planner

Search our weather history database for the weather conditions in past years. The results will help you decide how hot, cold, wet, or windy it might be!

Date:

Astronomy

Mar. 09, 2014 Rise Set
Actual Time 7:18 AM CDT 7:04 PM CDT
Civil Twilight 6:54 AM CDT 7:29 PM CDT
Nautical Twilight 6:25 AM CDT 7:57 PM CDT
Astronomical Twilight 5:57 AM CDT 8:25 PM CDT
Moon 1:11 PM CDT (3/9) 3:30 AM CDT (3/9)
Length of Visible Light 12h 34m
Length of Day
11h 45m
First Quarter, 61% of the Moon is Illuminated
Mar 9
First Quarter
Mar 16
Full
Mar 23
Last Quarter
Mar 30
New
Apr 7
First Quarter

Hourly Weather History & Observations

Time (CDT) Temp. Dew Point Humidity Pressure Visibility Wind Dir Wind Speed Gust Speed Precip Events Conditions
12:53 AM 60.1 °F 46.9 °F 62% 30.16 in 10.0 mi Calm Calm - N/A   Overcast
1:53 AM 59.0 °F 46.0 °F 62% 30.16 in 10.0 mi Calm Calm - N/A   Overcast
3:53 AM 55.9 °F 46.9 °F 72% 30.16 in 10.0 mi Calm Calm - N/A   Scattered Clouds
4:53 AM 55.0 °F 46.9 °F 74% 30.16 in 10.0 mi Calm Calm - N/A   Clear
5:53 AM 55.0 °F 46.9 °F 74% 30.15 in 10.0 mi East 3.5 mph - N/A   Mostly Cloudy
6:53 AM 55.9 °F 46.9 °F 72% 30.17 in 10.0 mi Calm Calm - N/A   Clear
7:53 AM 55.0 °F 46.9 °F 74% 30.21 in 10.0 mi Calm Calm - N/A   Clear
8:53 AM 57.9 °F 46.9 °F 67% 30.22 in 10.0 mi ENE 3.5 mph - N/A   Clear
9:53 AM 60.1 °F 46.9 °F 62% 30.23 in 10.0 mi ENE 5.8 mph - N/A   Clear
10:53 AM 64.9 °F 46.0 °F 50% 30.22 in 10.0 mi East 4.6 mph - N/A   Clear
11:53 AM 68.0 °F 46.0 °F 45% 30.22 in 10.0 mi Calm Calm - N/A   Scattered Clouds
12:53 PM 70.0 °F 46.0 °F 42% 30.22 in 10.0 mi Variable 4.6 mph - N/A   Mostly Cloudy
1:53 PM 71.1 °F 46.0 °F 41% 30.19 in 10.0 mi Calm Calm - N/A   Mostly Cloudy
2:53 PM 71.1 °F 46.0 °F 41% 30.17 in 10.0 mi Variable 3.5 mph - N/A   Partly Cloudy
3:53 PM 70.0 °F 46.9 °F 44% 30.15 in 10.0 mi Calm Calm - N/A   Partly Cloudy
4:53 PM 70.0 °F 46.9 °F 44% 30.14 in 10.0 mi West 3.5 mph - N/A   Partly Cloudy
5:53 PM 71.1 °F 46.9 °F 42% 30.12 in 10.0 mi Variable 3.5 mph - N/A   Clear
6:53 PM 64.9 °F 50.0 °F 58% 30.13 in 10.0 mi NW 9.2 mph - N/A   Clear
7:53 PM 60.1 °F 48.9 °F 67% 30.16 in 9.0 mi NNW 5.8 mph - N/A   Clear
8:53 PM 57.9 °F 48.0 °F 70% 30.18 in 8.0 mi NNW 3.5 mph - N/A   Clear
9:53 PM 55.9 °F 48.0 °F 75% 30.19 in 7.0 mi NW 3.5 mph - N/A   Clear
10:53 PM 54.0 °F 48.0 °F 80% 30.18 in 5.0 mi Calm Calm - N/A   Haze
11:53 PM 52.0 °F 48.0 °F 86% 30.18 in 4.0 mi NNW 3.5 mph - N/A   Clear
12:53 AM 51.1 °F 46.9 °F 86% 30.17 in 3.0 mi Calm Calm - N/A   Clear